Location: Earls Croome
(52.0667°N, 2.2000°W)
Time: 15:25:59
(UTC+00:00)

COSMOS 2455 - Pass Details

Date: 28 February 2020
Orbit: 901 x 909 km, 67.2° (Epoch: 04 April)

Event Time Altitude Azimuth Distance (km) Brightness Sun altitude
Exits shadow 03:48:28 11° 329° (NNW) 2,512 5.1 -29.3°
Maximum altitude 03:53:46 37° 35° (NE) 1,381 4.2 -28.5°
Drops below altitude 10° 03:59:19 10° 102° (ESE) 2,595 5.9 -27.8°
Sets 04:02:02 0° 111° (ESE) 3,534 6.6 -27.4°
